一网星座-0416星 (ONEWEB-0416 )

导读

ONEWEB-0416是英国OneWeb“一网”低轨通信星座的卫星,于2022年2月10日发射,属于星座组网卫星。OneWeb星座旨在为全球偏远基础设施薄弱区域提供低成本互联网接入服务,卫星单颗重约147.5千克,采用氙气电推进,可提供高速宽带通信,失效后会主动离轨焚毁,ONEWEB-0416是该星座全球覆盖组网的重要组成部分。

基本信息
目录编号:
51625
目录名称:
ONEWEB-0416
国际标识:
2022-012D
轨道中心:
EARTH
卫星名称:
一网星座-0416星
卫星全名:
一网星座-0416星 (ONEWEB-0416 )
卫星状态:
在轨 (已飞行1585 天)
发射日期:
2022-02-10 UTC
国别 :
英国 (GB)
星等 :
--
轨道信息
数据来源 国际轨道数据 AOE轨道数据
星历时间 2026-06-14T05:22:31+0800
14小时前
查看轨道信息
2026-06-08T02:00:00+0800
6天前
查看轨道信息
半长轴 7599.865km 7599.802km
偏心率 0.0002054 0.0001988
轨道倾角 87.883° 87.885°
近地点辐角 94.661° 93.491°
升交点赤经 36.940° 38.163°
平近点角 265.476° 115.594°
近地点 1220.166km 1220.154km
远地点 1223.29km 1223.176km
周期 109.893分钟 109.891分钟
每日圈数 13.103702 13.103865
详细信息
平衡模式:
三轴稳定
覆盖范围:
全球
运营商:
一网卫星公司
运营商所在国:
英国
制造商(研发单位):
一网卫星公司
制造商所在国:
英国
使用方式:
暂无
卫星简介
OneWeb卫星网络由648颗重约125公斤的微型卫星组成,运行在1200公里的轨道上。 每颗卫星都能够提供至少每秒8千兆位的吞吐量,以使用其高吞吐量的Ku频段有效载荷为家庭和移动平台提供互联网接入。该卫星仍在工作。
2D轨道图
3D轨道图
轨道高度分析图
轨道倾角分析图
轨道综合分析图
查看轨道综合分析图